Location: Lanoux
(43.1180°N, 1.4255°E)
Time: 14:13:08
(UTC+00:00)

Meteor 2-10 - Pass Details

Date: 21 March 2026
Orbit: 736 x 866 km, 81.2° (Epoch: 18 April)

Event Time Altitude Azimuth Distance (km) Brightness Sun altitude
Rises 04:39:02 0° 354° (N) 3,180 7.3 -14.7°
Reaches altitude 10° 04:41:25 10° 359° (N) 2,258 6.6 -14.3°
Maximum altitude 04:46:22 55° 77° (ENE) 901 4.8 -13.4°
Drops below altitude 10° 04:51:24 10° 155° (SSE) 2,291 6.6 -12.5°
Sets 04:53:49 0° 159° (SSE) 3,231 7.4 -12.1°
